{"data":{"norad_id":66844,"intl_designator":"2025-280Z","name":"STARLINK-36073","alt_names":[],"object_type":"PAYLOAD","status":"ACTIVE","operator":null,"country":"US","launch_date":"2025-12-02","launch_site_code":"AFWTR","launch_vehicle":null,"mission":null,"orbit_class":"UNKNOWN","rcs_meters":null,"size_class":null,"mass_kg":null,"dimensions":null,"purposes":["comms"],"wikipedia_slug":null,"has_3d_model":false,"image_url":null,"decayed_at":null,"tle_current":{"epoch":"2026-05-25T02:54:47.601792Z","epoch_age_seconds":64646,"freshness":"FRESH","line1":"1 66844U 25280Z   26145.12138428  .00004084  00000+0  34984-3 0  9998","line2":"2 66844  70.0005 141.7844 0003879 269.8017  90.2698 14.98333964 27497","mean_motion":14.98333964,"eccentricity":0.0003879,"inclination_deg":70.0005,"raan_deg":141.7844,"arg_perigee_deg":269.8017,"mean_anomaly_deg":90.2698,"bstar":0.00034984,"rev_number":2749,"period_min":96.106744864525,"perigee_km":569.34765756104,"apogee_km":574.73960769583,"semimajor_km":6950.1806326284,"source":"CELESTRAK","updated_at":"2026-05-25T13:38:21.338808Z"}}}